Location: D?uga
(50.2667°N, 19.7833°E)
Time: 00:24:24
(UTC+00:00)

Cosmos 1455 - Pass Details

Date: 23 May 2024
Orbit: 445 x 460 km, 82.5° (Epoch: 18 June)

Event Time Altitude Azimuth Distance (km) Brightness Sun altitude
Rises 00:26:45 0° 345° (NNW) 2,461 6.4 -15.1°
Reaches altitude 10° 00:28:51 10° 340° (NNW) 1,585 5.3 -15.0°
Maximum altitude 00:32:12 50° 265° (W) 583 2.2 -14.7°
Enters shadow 00:33:32 30° 206° (SSW) 829 2.6 -14.6°
